TimeMST,TemperatureF,Dew PointF,Humidity,Sea Level PressureIn,VisibilityMPH,Wind Direction,Wind SpeedMPH,Gust SpeedMPH,PrecipitationIn,Events,Conditions,WindDirDegrees,DateUTC
12:53 AM,27.0,19.0,72,30.30,10.0,NNW,4.6,-,N/A,,Clear,340,2013-02-02 07:53:00
1:53 AM,27.0,18.0,69,30.29,10.0,NNW,3.5,-,N/A,,Clear,330,2013-02-02 08:53:00
2:53 AM,26.1,17.1,69,30.31,10.0,NW,4.6,-,N/A,,Clear,320,2013-02-02 09:53:00
3:53 AM,24.1,17.1,75,30.32,10.0,Calm,Calm,-,N/A,,Clear,0,2013-02-02 10:53:00
4:53 AM,21.0,17.1,85,30.34,10.0,Calm,Calm,-,N/A,,Clear,0,2013-02-02 11:53:00
5:53 AM,19.0,16.0,88,30.37,10.0,SSW,3.5,-,N/A,,Clear,200,2013-02-02 12:53:00
6:53 AM,18.0,15.1,88,30.39,10.0,Calm,Calm,-,N/A,,Clear,0,2013-02-02 13:53:00
7:53 AM,19.0,16.0,88,30.44,10.0,South,4.6,-,N/A,,Clear,190,2013-02-02 14:53:00
8:53 AM,25.0,19.9,81,30.42,10.0,Calm,Calm,-,N/A,,Clear,0,2013-02-02 15:53:00
9:53 AM,32.0,21.0,64,30.43,10.0,Calm,Calm,-,N/A,,Clear,0,2013-02-02 16:53:00
10:53 AM,36.0,21.9,57,30.43,10.0,SW,3.5,-,N/A,,Clear,230,2013-02-02 17:53:00
11:53 AM,44.1,18.0,35,30.36,10.0,Calm,Calm,-,N/A,,Clear,0,2013-02-02 18:53:00
12:53 PM,46.0,21.9,39,30.32,10.0,Calm,Calm,-,N/A,,Clear,0,2013-02-02 19:53:00
1:53 PM,48.0,21.9,36,30.29,10.0,Calm,Calm,-,N/A,,Clear,0,2013-02-02 20:53:00
2:53 PM,51.1,24.1,35,30.26,10.0,NW,3.5,-,N/A,,Clear,320,2013-02-02 21:53:00
3:53 PM,51.1,21.9,32,30.26,10.0,Calm,Calm,-,N/A,,Clear,0,2013-02-02 22:53:00
4:53 PM,50.0,19.0,29,30.27,10.0,Variable,4.6,-,N/A,,Clear,0,2013-02-02 23:53:00
5:53 PM,41.0,23.0,49,30.33,10.0,ESE,9.2,-,N/A,,Clear,110,2013-02-03 00:53:00
6:53 PM,37.9,21.9,53,30.37,10.0,East,8.1,-,N/A,,Clear,80,2013-02-03 01:53:00
7:53 PM,33.1,24.1,70,30.39,10.0,WSW,4.6,-,N/A,,Clear,240,2013-02-03 02:53:00
8:53 PM,28.9,23.0,78,30.39,10.0,Calm,Calm,-,N/A,,Clear,0,2013-02-03 03:53:00
9:53 PM,28.0,23.0,81,30.35,10.0,Calm,Calm,-,N/A,,Clear,0,2013-02-03 04:53:00
10:53 PM,27.0,23.0,85,30.32,10.0,Calm,Calm,-,N/A,,Clear,0,2013-02-03 05:53:00
11:53 PM,26.1,23.0,88,30.30,10.0,Calm,Calm,-,N/A,,Clear,0,2013-02-03 06:53:00